CW7164 Weather Reports


Display with metric or nautical units.
time (UTC)temp
F
wind
direction
speed
MPH
gust
MPH
rain 1hr
in
rain 24hr
in
rain mn
in
humidity
%
barometer
mb
20260502213730 57 283 2.0 5.0 0.00 0.06 0.06 37 1016.4
20260502212830 57 236 2.0 4.0 0.00 0.06 0.06 36 1016.4
20260502210130 55 298 1.0 2.0 0.00 0.06 0.06 41 1016.5
20260502203430 57 307 2.0 8.0 0.00 0.06 0.06 39 1017.0
20260502202530 58 326 2.0 7.0 0.00 0.06 0.06 36 1017.2
20260502201630 57 318 2.0 5.0 0.00 0.06 0.06 37 1017.2
20260502200730 57 276 2.0 6.0 0.00 0.06 0.06 38 1017.3
20260502195833 56 321 2.0 7.0 0.00 0.06 0.06 40 1017.5
20260502194030 53 303 1.0 6.0 0.00 0.06 0.06 42 1017.8
20260502193130 54 312 2.0 7.0 0.00 0.06 0.06 41 1017.9
20260502192230 54 209 2.0 6.0 0.00 0.06 0.06 39 1017.9
20260502191330 55 10 1.0 4.0 0.00 0.06 0.06 43 1018.0
20260502190430 54 99 1.0 4.0 0.00 0.06 0.06 43 1018.1
20260502185529 53 295 2.0 4.0 0.01 0.06 0.06 45 1018.2
20260502184630 53 260 1.0 4.0 0.01 0.06 0.06 42 1018.4
20260502183730 53 291 1.0 6.0 0.01 0.06 0.06 42 1018.4
20260502181930 52 294 1.0 4.0 0.01 0.06 0.06 44 1018.6
20260502180130 53 307 2.0 5.0 0.01 0.06 0.06 43 1018.7
20260502164029 52 311 2.0 7.0 0.01 0.05 0.05 42 1019.3
20260502163130 51 344 1.0 5.0 0.01 0.05 0.05 43 1019.3
20260502162230 50 289 2.0 7.0 0.00 0.04 0.04 42 1019.4
20260502161330 51 298 2.0 5.0 0.00 0.04 0.04 42 1019.5
20260502160430 51 292 2.0 4.0 0.00 0.04 0.04 44 1019.6
20260502151930 49 198 1.0 5.0 0.02 0.04 0.04 46 1019.8
20260502151029 49 318 2.0 5.0 0.02 0.04 0.04 47 1019.7
20260502150129 48 323 2.0 6.0 0.02 0.04 0.04 48 1019.7
20260502130431 38 353 0.0 1.0 0.00 0.00 0.00 53 1019.6
20260502121930 33 325 0.0 2.0 0.00 0.00 0.00 49 1019.4
20260502121029 32 0 0.0 0.0 0.00 0.00 0.00 52 1019.4
20260502120129 31 0 0.0 0.0 0.00 0.00 0.00 53 1019.2
20260502115229 31 0 0.0 0.0 0.00 0.00 0.00 54 1019.2
20260502114329 31 0 0.0 0.0 0.00 0.00 0.00 55 1019.1
20260502113429 31 0 0.0 0.0 0.00 0.00 0.00 55 1018.9
20260502112529 30 0 0.0 0.0 0.00 0.00 0.00 56 1019.0
20260502111629 30 0 0.0 0.0 0.00 0.00 0.00 56 1018.9
20260502110729 30 0 0.0 0.0 0.00 0.00 0.00 56 1018.8
20260502104545 31 0 0.0 0.0 0.00 0.00 0.00 57 1018.7
20260502103645 31 0 0.0 0.0 0.00 0.00 0.00 57 1018.7
20260502102745 31 0 0.0 0.0 0.00 0.00 0.00 58 1018.7
20260502101845 31 0 0.0 0.0 0.00 0.00 0.00 58 1018.7
20260502100945 31 0 0.0 0.0 0.00 0.00 0.00 58 1018.7
20260502070044 32 0 0.0 0.0 0.00 0.00 0.00 67 1018.7
20260502065145 32 0 0.0 0.0 0.00 0.00 0.00 67 1018.9
20260502064245 32 0 0.0 0.0 0.00 0.00 0.00 68 1018.8
20260502063345 32 0 0.0 0.0 0.00 0.00 0.00 68 1018.9
20260502061545 32 0 0.0 0.0 0.00 0.00 0.00 69 1019.1
20260502060645 32 0 0.0 0.0 0.00 0.00 0.00 70 1019.1
20260502054845 33 0 0.0 0.0 0.00 0.00 0.00 71 1019.2
20260502053945 33 0 0.0 0.0 0.00 0.00 0.00 72 1019.2
20260502053044 33 0 0.0 0.0 0.00 0.00 0.00 72 1019.1
20260502052145 34 0 0.0 0.0 0.00 0.00 0.00 72 1019.2
20260502051245 34 0 0.0 0.0 0.00 0.00 0.00 73 1019.1
20260502050345 34 0 0.0 0.0 0.00 0.00 0.00 73 1019.2
20260502045445 34 0 0.0 0.0 0.00 0.00 0.00 74 1019.2
20260502044545 34 0 0.0 0.0 0.00 0.00 0.00 74 1019.2
20260502043645 34 0 0.0 0.0 0.00 0.00 0.00 75 1019.1
20260502042745 35 0 0.0 0.0 0.00 0.00 0.00 75 1019.1
20260502041845 35 0 0.0 0.0 0.00 0.00 0.00 75 1019.0
20260502040044 36 0 0.0 0.0 0.00 0.00 0.00 75 1019.1
20260502035145 36 0 0.0 0.0 0.00 0.00 0.00 75 1019.0
20260502034244 36 0 0.0 0.0 0.00 0.00 0.00 75 1018.9
20260502033345 37 0 0.0 0.0 0.00 0.00 0.00 75 1018.8
20260502032445 37 0 0.0 0.0 0.00 0.00 0.00 74 1018.9
20260502031544 37 0 0.0 0.0 0.00 0.00 0.00 74 1018.8
20260502030645 38 0 0.0 0.0 0.00 0.00 0.00 74 1018.9
20260502025745 38 0 0.0 0.0 0.00 0.00 0.00 74 1018.9
20260502024844 38 278 0.0 1.0 0.00 0.00 0.00 73 1018.7
20260502023944 38 278 0.0 1.0 0.00 0.00 0.00 73 1018.7
20260502023044 38 277 0.0 1.0 0.00 0.00 0.00 73 1018.6
20260502022144 39 275 0.0 1.0 0.00 0.00 0.00 73 1018.5
20260502021244 39 288 0.0 2.0 0.00 0.00 0.00 72 1018.4
20260502020344 39 330 0.0 2.0 0.00 0.00 0.00 72 1018.3
20260502015445 39 309 0.0 2.0 0.00 0.00 0.00 71 1018.2
20260502014544 40 284 0.0 1.0 0.00 0.00 0.00 71 1018.1
20260502013644 40 284 0.0 1.0 0.00 0.00 0.00 71 1017.9
20260502012744 40 282 0.0 2.0 0.00 0.00 0.00 71 1017.7
20260502011845 41 294 0.0 2.0 0.00 0.00 0.00 71 1017.5
20260502010944 41 305 0.0 2.0 0.00 0.01 0.00 71 1017.5
20260502004244 43 269 0.0 3.0 0.00 0.01 0.00 71 1017.3
20260502003344 44 261 0.0 1.0 0.00 0.01 0.00 71 1017.2
20260502002444 44 258 0.0 2.0 0.00 0.01 0.00 71 1017.0
20260502000644 45 222 0.0 2.0 0.00 0.01 0.00 70 1016.9
20260501235744 45 151 0.0 1.0 0.00 0.01 0.00 70 1016.9
20260501234844 46 160 1.0 3.0 0.00 0.01 0.00 69 1016.8
20260501233944 46 223 0.0 2.0 0.00 0.01 0.00 69 1016.8
20260501233044 47 163 1.0 3.0 0.00 0.01 0.00 68 1016.8
20260501231244 47 170 0.0 2.0 0.00 0.01 0.00 69 1016.9
20260501230344 47 173 0.0 2.0 0.00 0.01 0.00 70 1016.9
20260501224544 47 253 0.0 1.0 0.00 0.01 0.00 69 1016.9
20260501222744 47 224 0.0 2.0 0.00 0.01 0.00 68 1016.9
20260501221844 47 270 0.0 2.0 0.00 0.01 0.00 68 1016.8
20260501220944 47 244 0.0 2.0 0.00 0.01 0.00 67 1016.8
20260501220044 47 203 0.0 1.0 0.00 0.01 0.00 67 1016.8
20260501215144 47 163 0.0 2.0 0.00 0.01 0.00 67 1016.8
20260501214244 47 135 0.0 2.0 0.00 0.01 0.00 66 1016.8